#timestamp,LO_Frequency,Hit 
1504098015.3,286046995.4,N
1504098035.2,286046997.6,N
1504098055.9,286046994.9,N
1504098075.7,286046999.1,N
1504098095.6,286046997.7,N
1504098115.4,286046995.9,N
1504098135.2,286046992.4,N
1504098155.1,286046992.1,N
1504098175.4,286046994.0,N
1504098195.2,286046995.9,N
1504098215.1,286046994.3,N
1504098216.0,286046994.3,N
1504098235.8,286046990.9,P
1504098255.6,286046995.3,N
1504098275.5,286046996.6,N
1504098295.3,286046998.8,N
1504098315.1,286046994.9,N
1504098335.9,286046995.1,N
1504098355.7,286047002.2,N
1504098375.5,286047003.7,N
1504098395.4,286047005.2,N
1504098415.2,286047008.6,N
1504098435.0,286047006.0,N
1504098435.9,286047006.0,N
1504098455.8,286047002.7,N
1504098475.6,286046996.7,N
1504098495.4,286046997.7,N
1504098515.3,286046996.7,N
1504098535.1,286047000.0,N
1504098536.0,286047000.0,N
1504098555.8,286047003.2,N
1504098575.7,286047003.3,N
1504098595.5,286047002.0,N
1504098615.3,286047002.8,N
1504098635.1,286047004.0,N
1504098655.9,286047001.2,N
1504098675.7,286046998.7,N
1504098695.5,286046999.6,N
1504098715.4,286046995.6,N
1504098735.2,286046996.5,N
1504098755.0,286046997.0,N
1504098755.9,286046997.0,N
1504098775.8,286046997.4,N
1504098795.6,286046998.7,N
1504098815.4,286046995.3,N
1504098835.3,286046995.3,N
1504098855.1,286046999.4,N
1504098856.0,286046999.4,N
1504098875.8,286046997.6,N
1504098895.7,286046995.4,N
1504098915.5,286046992.2,N
1504098935.3,286046992.9,N
1504098955.1,286046990.1,N
1504098975.9,286046996.2,N
1504098995.7,286046996.1,N
1504099015.5,286046998.1,N
1504099035.4,286047000.4,N
1504099055.2,286047002.5,N
1504099075.0,286047001.2,N
1504099075.9,286047001.2,N
1504099095.8,286047001.5,N
1504099115.6,286047000.1,N
1504099135.4,286047000.0,N
1504099155.3,286046999.3,N
1504099175.1,286046992.0,N
1504099176.0,286046992.0,N
1504099195.8,286046989.3,P
1504099215.7,286046992.4,N
1504099235.5,286046990.7,N
1504099255.3,286046990.8,P
1504099275.2,286046994.5,P
1504099295.0,286046994.1,P
1504099295.9,286046994.1,P
1504099315.8,286046999.3,N
1504099335.6,286046997.5,N
1504099355.4,286046993.4,N
1504099375.3,286046990.6,P
1504099395.1,286046994.4,N
1504099396.0,286046994.4,N
1504099415.8,286046990.3,P
1504099435.7,286046995.0,N
1504099455.5,286046990.4,P
1504099475.3,286046991.1,P
1504099495.2,286046996.9,P
1504099515.0,286046997.6,N
1504099515.9,286046997.6,N
1504099535.7,286046993.3,N
1504099555.6,286046994.9,N
1504099575.4,286046993.8,N
1504099595.2,286046990.2,P
1504099615.1,286046995.4,N
1504099616.0,286046995.4,N
1504099635.8,286046995.8,N
1504099655.7,286046992.5,P
1504099675.5,286046998.7,N
1504099695.3,286046997.0,N
1504099715.1,286046998.8,N
1504099735.9,286047001.7,N
1504099755.7,286047001.7,N
1504099775.5,286046998.1,N
1504099795.4,286047000.4,N
1504099815.2,286047004.9,N
1504099835.0,286047012.4,P
1504099835.9,286047012.4,N
1504099855.8,286047011.0,N
1504099875.6,286047013.8,N
1504099895.4,286047012.3,N
1504099915.3,286047014.1,N
1504099935.1,286047016.4,P
1504099955.8,286047010.6,P
1504099975.7,286047012.1,P
1504099995.5,286047009.6,P
1504100015.4,286046997.2,N
1504100035.2,286046999.8,N
1504100055.0,286047002.1,N
1504100055.9,286047002.1,N
1504100075.7,286047004.2,N
1504100095.6,286047005.2,N
1504100115.4,286047002.6,N
1504100135.2,286047000.3,N
1504100155.1,286046998.6,N
1504100156.0,286046998.6,N
1504100175.8,286046997.7,N
1504100195.6,286046998.0,N
1504100215.5,286046993.0,N
1504100235.3,286046988.1,N
1504100255.1,286046986.0,N
1504100275.9,286046982.7,N
1504100295.7,286046988.2,N
1504100315.5,286046982.6,N
1504100335.4,286046979.0,N
1504100355.2,286046977.1,N
1504100375.0,286046975.3,N
1504100375.9,286046975.3,N
1504100395.8,286046975.2,N
1504100415.6,286046977.3,N
1504100435.4,286046974.1,N
1504100455.2,286046975.8,N
1504100475.1,286046976.7,N
1504100476.0,286046976.7,N
1504100495.8,286046974.1,N
1504100515.6,286046972.5,N
1504100535.5,286046970.5,N
1504100555.3,286046965.0,P
1504100575.1,286046978.5,N
1504100595.9,286046975.0,N
1504100615.7,286046975.5,P
1504100635.5,286046999.3,N
1504100655.4,286046998.5,N
1504100675.2,286047000.8,N
1504100695.0,286046999.7,N
1504100695.9,286046999.7,N
1504100715.8,286047002.7,N
1504100735.6,286046998.7,N
1504100755.4,286046995.3,N
1504100775.3,286046998.0,N
1504100795.1,286046994.8,N
1504100815.8,286046992.5,N
1504100835.7,286046993.6,N
1504100855.5,286047001.1,N
1504100875.3,286047002.3,N
1504100895.2,286047000.7,N
1504100915.9,286047001.2,N
1504100935.7,286046998.5,N
1504100955.5,286046999.4,N
1504100975.4,286046995.5,N
1504100995.2,286047001.2,N
1504101015.0,286047000.6,N
1504101015.9,286047000.6,N
1504101035.8,286047002.6,N
1504101055.6,286047001.6,N
1504101075.4,286047006.4,N
1504101095.3,286047009.1,N
1504101115.1,286047007.0,N
1504101116.0,286047007.0,N
1504101135.8,286047003.3,N
1504101155.7,286047005.8,N
1504101175.5,286047008.0,N
1504101195.3,286047010.2,N
1504101215.2,286047009.9,N
1504101235.9,286047010.2,N
1504101255.7,286047009.6,N
1504101275.5,286047010.1,N
1504101295.4,286047010.5,N
1504101315.2,286047009.1,N
1504101335.0,286047009.3,N
1504101335.9,286047009.3,N
1504101355.8,286047010.5,N
1504101375.6,286047008.8,N
1504101395.4,286047009.6,N
1504101415.3,286047011.2,N
1504101435.1,286047011.8,N
1504101455.8,286047013.4,N
1504101475.7,286047012.6,N
1504101495.5,286047014.8,P
1504101515.3,286047008.7,N
1504101535.2,286047009.9,N
1504101555.9,286047013.4,P
1504101575.7,286047001.7,N
1504101595.6,286047004.1,N
